Clinton-Sherman, OK

6:43 PM CST on February 23, 2018 (GMT -0600)
Clinton-Sherman

Weather History for KCSM - March, 2014

Change the Weather History Date:

Friday, March 7, 2014

  Actual Average Record
Temperature  
Mean Temperature 56 °F -  
Max Temperature 73 °F 55 °F 79 °F (2006)
Min Temperature 39 °F 32 °F 18 °F (2008)
Degree Days  
Heating Degree Days 9    
Growing Degree Days 6 (Base 50)    
Moisture  
Dew Point 36 °F    
Average Humidity 58    
Maximum Humidity 79    
Minimum Humidity 24    
Precipitation  
Precipitation 0.00 in - - ()
Sea Level Pressure  
Sea Level Pressure 29.78 in    
Wind  
Wind Speed 21 mph (South)    
Max Wind Speed 29 mph    
Max Gust Speed 36 mph    
Visibility 10 miles    
Events      
Averages and records for this station are not official NWS values.
T = Trace of Precipitation, MM = Missing Value Source: NWS Daily Summary

Daily Weather History Graph

Daily Weather History Graph

Search for Another Location

Airport or City:

Trip Planner

Search our weather history database for the weather conditions in past years. The results will help you decide how hot, cold, wet, or windy it might be!

Date:

Astronomy

Mar. 07, 2014 Rise Set
Actual Time 6:58 AM CST 6:37 PM CST
Civil Twilight 6:33 AM CST 7:03 PM CST
Nautical Twilight 6:03 AM CST 7:32 PM CST
Astronomical Twilight 5:34 AM CST 8:01 PM CST
Moon 11:05 AM CST (3/7) 12:31 AM CST (3/7)
Length of Visible Light 12h 29m
Length of Day
11h 39m
Waxing Crescent, 42% of the Moon is Illuminated
Mar 7
Waxing Crescent
Mar 8
First Quarter
Mar 16
Full
Mar 23
Last Quarter
Mar 30
New

Hourly Weather History & Observations

Time (CST) Temp. Windchill Dew Point Humidity Pressure Visibility Wind Dir Wind Speed Gust Speed Precip Events Conditions
12:53 AM 41.0 °F 31.4 °F 34.0 °F 76% 29.91 in 10.0 mi South 21.9 mph - N/A   Clear
1:53 AM 41.0 °F 31.6 °F 34.0 °F 76% 29.89 in 10.0 mi South 20.7 mph - N/A   Clear
2:53 AM 39.9 °F 30.0 °F 34.0 °F 79% 29.86 in 10.0 mi South 21.9 mph - N/A   Clear
3:53 AM 41.0 °F 31.1 °F 33.1 °F 73% 29.83 in 10.0 mi South 23.0 mph - N/A   Clear
4:53 AM 39.9 °F 30.2 °F 33.1 °F 77% 29.83 in 10.0 mi South 20.7 mph - N/A   Clear
5:53 AM 39.9 °F 30.2 °F 33.1 °F 77% 29.81 in 10.0 mi South 20.7 mph - N/A   Clear
6:53 AM 41.0 °F 31.6 °F 33.1 °F 73% 29.80 in 10.0 mi South 20.7 mph - N/A   Clear
7:53 AM 42.1 °F 32.8 °F 34.0 °F 73% 29.79 in 10.0 mi South 21.9 mph - N/A   Clear
8:53 AM 44.1 °F 35.2 °F 35.1 °F 71% 29.79 in 10.0 mi South 23.0 mph - N/A   Clear
9:53 AM 46.9 °F - 36.0 °F 66% 29.78 in 10.0 mi South 23.0 mph 32.2 mph N/A   Clear
10:53 AM 53.1 °F - 36.0 °F 52% 29.76 in 10.0 mi South 25.3 mph 32.2 mph N/A   Clear
11:53 AM 60.1 °F - 36.0 °F 41% 29.73 in 10.0 mi SSW 28.8 mph 35.7 mph N/A   Clear
12:53 PM 63.0 °F - 36.0 °F 37% 29.72 in 10.0 mi South 24.2 mph 31.1 mph N/A   Clear
1:53 PM 70.0 °F - 37.0 °F 30% 29.68 in 10.0 mi South 23.0 mph 29.9 mph N/A   Clear
2:53 PM 72.0 °F - 35.1 °F 26% 29.66 in 10.0 mi South 19.6 mph 27.6 mph N/A   Clear
3:53 PM 73.9 °F - 35.1 °F 24% 29.64 in 10.0 mi SSE 19.6 mph 28.8 mph N/A   Clear
4:53 PM 73.9 °F - 37.0 °F 26% 29.63 in 10.0 mi SSE 21.9 mph 27.6 mph N/A   Clear
5:53 PM 68.0 °F - 37.9 °F 33% 29.67 in 10.0 mi SSE 13.8 mph - N/A   Clear
6:53 PM 61.0 °F - 39.0 °F 44% 29.73 in 10.0 mi NNW 5.8 mph - N/A   Clear
7:53 PM 55.9 °F - 39.9 °F 55% 29.78 in 10.0 mi North 10.4 mph - N/A   Clear
8:53 PM 53.1 °F - 39.0 °F 59% 29.82 in 10.0 mi North 18.4 mph - N/A   Clear
9:53 PM 50.0 °F - 37.9 °F 63% 29.86 in 10.0 mi North 26.5 mph 31.1 mph N/A   Clear
10:53 PM 43.0 °F 32.9 °F 36.0 °F 76% 29.91 in 8.0 mi North 27.6 mph 34.5 mph N/A   Clear
11:53 PM 39.9 °F 28.8 °F 34.0 °F 79% 29.91 in 7.0 mi North 27.6 mph 34.5 mph N/A   Clear